Regional Weather Roundup
Issued by NWS

Home | Current Version | Previous Version | Graphics & Text | Print | Product List | Glossary On
Versions: 1 2 3 4 5 6 7 8 9 10 11 12 13 14 15 16 17 18 19 20 21 22 23 24 25 26 27 28
000
ASUS45 KCYS 220310
RWRWY

WYOMING REGIONAL WEATHER ROUNDUP
NATIONAL WEATHER SERVICE CHEYENNE WY
900 PM MDT TUE OCT 21 2014

NOTE:  "FAIR" INDICATES FEW OR NO CLOUDS BELOW 12,000 FEET
WITH NO SIGNIFICANT WEATHER AND/OR OBSTRUCTIONS TO VISIBILITY.

WYZ001-220400-
YELLOWSTONE NATIONAL PARK

CITY           SKY/WX    TMP DP  RH WIND       PRES   REMARKS
LK YELLOWSTONE   N/A     32  29  88 CALM      30.09R
W YELLOWSTONE  NOT AVBL

$$
WYZ002>013-054>058-071-098>099-220400-
NORTHERN WYOMING

CITY           SKY/WX    TMP DP  RH WIND       PRES   REMARKS
JACKSON        PTCLDY    37  28  70 S10       30.07S WCI  30
CODY           PTCLDY   N/A N/A N/A W14G21    29.93R
GREYBULL       MOCLDY    55  21  26 NW10      29.89R
WORLAND        LGT RAIN  56  25  30 N10       29.89R
SHERIDAN       CLOUDY    62  33  33 NW21      29.77R
BUFFALO        MOCLDY    64  25  22 W13       29.82R
GILLETTE       CLOUDY    62  33  33 SW14      29.79R
HULETT         CLOUDY    70  36  28 SW13G20   29.78
NEWCASTLE      FAIR      61  36  39 SE14      29.82

$$
WYZ014>020-022>026-101>103-220400-
CENTRAL WYOMING

CITY           SKY/WX    TMP DP  RH WIND       PRES   REMARKS
BIG PINEY      CLEAR     35  25  66 N12       30.08S WCI  27
PINEDALE       PTCLDY    32  27  80 NW6       30.08S WCI  26
DUBOIS         FAIR      36  23  60 W15       30.04S WCI  26
LANDER         CLEAR     51  27  39 NE5       29.94R
RIVERTON       CLEAR     47  20  34 NW20      29.95R
CASPER         CLOUDY    55  38  52 SW20      29.91S
DOUGLAS        LGT RAIN  57  43  59 W24G33    29.94R

$$
WYZ021-027>030-104>119-220400-
SOUTHERN WYOMING

CITY           SKY/WX    TMP DP  RH WIND       PRES   REMARKS
EVANSTON       CLOUDY    43  22  43 W6        30.11R
KEMMERER       MOCLDY    36  27  69 W7        30.10S WCI  30
FORT BRIDGER   MOCLDY    43  28  56 W9        30.12S
ROCK SPRINGS   LGT RAIN  43  33  68 SW12      30.07F
DIXON          RAIN      49  40  71 S7        30.12R
RAWLINS        LGT RAIN  46  40  79 W9        30.06R
SARATOGA       TSTM      41  37  87 W3        30.11R
LARAMIE        CLOUDY    50  38  63 W9        30.06S
CHEYENNE       CLOUDY    58  40  51 W10       29.99R
TORRINGTON     CLOUDY    63  43  48 VRB5      29.88R
PINE BLUFFS    FAIR      52  37  58 CALM      29.94S

$$



USA.gov is the U.S. government's official web portal to all federal, state and local government web resources and services.